Location: Holmbach
(49.5093°N, 8.8411°E)
Time: 19:58:58
(UTC+00:00)

MetOp-A - Pass Details

Date: 17 June 2025
Orbit: 521 x 774 km, 98.3° (Epoch: 16 July)

Event Time Altitude Azimuth Distance (km) Brightness Sun altitude
Exits shadow 21:51:45 21° 140° (SE) 1,533 5.0 -14.1°
Maximum altitude 21:54:43 54° 71° (ENE) 810 4.1 -14.3°
Drops below altitude 10° 21:59:01 10° 354° (N) 2,020 7.5 -14.6°
Sets 22:01:10 0° 350° (N) 2,891 8.8 -14.7°
